CZ-6A DEB, 54280

Orbit data source: Space-Track

CZ-6A DEB, 54280 is space debris in SSO originally from a launch on Fri, 11 Nov 2022 UTC launched from the Taiyaun Space Center, China (TSC). Debris objects in space refer to the collection of defunct objects orbiting the Earth. Examples of debris include non-operational satellites, rocket bodies, and fragments generated from explosions, collisions, or faulty payload assembly.

Loading next visibility...
Identifier
54280, 2022-151X
Orbit
SSO
Country
Flag of CNCN / PRC
Related business
Manufacturer
SAST
Mission
Spacecraft
Bus & Motor
Unknown
Mass
Unknown
Launch date (UTC)
2022-11-11 (3 years ago)
Launch vehicle
Unknown
Launch site
Taiyaun Space Center, China (TSC)
Object type
Payload
Rocket body
Debris
Shape & HBR
Unknown shape, 0.1 m
Radar Cross Section
Small (<0.1 m²)

Expand to show TLE details & history
Last TLE update: 1 day ago

TLE from 1 day ago
0 CZ-6A DEB
1 54280U 22151X   25348.63093166  .00002503  00000-0  81290-3 0  9999
2 54280  98.6206   7.8505 0081169 218.7266 140.8085 14.37885790161134
Epoch: 2025-12-14T15:08Z
TLE epoch observation values (Epoch: 2025-12-14T15:08:32.495Z)
Latitude
0.00001°
Longitude
57.17402°
Altitude
813.569 km
Speed
7.423 km/s
True Right ascension
00h 31m 24s
True Declination
0° 00' 00"
Sunlit
Object was in daylight at epoch
Visualization orbit readout
Latitude
Unknown
Longitude
Unknown
Altitude
Unknown
Speed
Unknown
Apparent Right ascension
Unknown
Apparent Declination
Unknown
Sunlit
N/A
Visualization observer readout
Local Sidereal Time
13:18:56
Azimuth
Unknown
Elevation
Unknown
Doppler factor
Unknown
Orbital elements
Apogee altitude
820.583 km
Perigee altitude
704.662 km
Semi-major axis
7,140.76 km
Eccentricity
0.00812
Inclination
98.6206°
RAAN
7.8505°
Arg. of periapsis
218.7266°
True anomaly
141.39166°
Mean anomaly
140.8085°
Eccentric anomaly
141.10054°
Mean motion
3.59689 °/min
Orbital period
100.09 mins
BSTAR
0.0008129
Loading maneuver chart data...
Computing Atmospheric mass density...
Loading historical data...
Loading historical data...
Loading historical data...
Loading historical data...
Loading historical data...
Loading historical data...
Loading historical data...

Documentation

Showing up to 5 results
|